Location: M?digepalle
(16.1753°N, 80.3496°E)
Time: 08:33:01
(UTC+00:00)

YAOGAN 1 - Pass Details

Date: 29 October 2020
Orbit: 618 x 620 km, 97.9° (Epoch: 27 November)

Event Time Altitude Azimuth Distance (km) Brightness Sun altitude
Rises 13:51:10 0° 176° (S) 2,883 6.0 -24.8°
Reaches altitude 10° 13:53:22 10° 180° (S) 1,979 5.2 -25.3°
Maximum altitude 13:57:36 57° 259° (WSW) 728 3.1 -26.3°
Drops below altitude 10° 14:01:50 10° 338° (NNW) 1,982 5.3 -27.3°
Sets 14:04:04 0° 342° (NNW) 2,888 6.1 -27.8°
